Regional Weather Roundup
Issued by NWS

Home | Current Version | Previous Version | Text Only | Print | Product List | Glossary Off
Versions: 1 2 3 4 5 6 7 8 9 10 11 12 13 14 15 16 17 18 19 20 21 22 23 24 25 26 27 28 29 30 31 32 33 34 35 36 37 38 39 40 41 42 43 44 45 46 47 48 49 50

000
ASUS45 KTFX 291110
RWRMT
MONTANA REGIONAL WEATHER ROUNDUP
NATIONAL WEATHER SERVICE GREAT FALLS MT
500 AM MDT SAT AUG 29 2015

NOTE: "FAIR" INDICATES FEW OR NO CLOUDS BELOW 12000 FEET WITH NO
SIGNIFICANT WEATHER AND/OR OBSTRUCTIONS TO VISIBILITY.

MTZ001>007-043-291200-
WEST OF THE DIVIDE

CITY           SKY/WX    TMP DP  RH WIND       PRES   REMARKS
KALISPELL      MOSUNNY   47  41  80 SW5       29.87F
MISSOULA       CLOUDY    62  48  60 CALM      29.91F HAZE
BUTTE          CLOUDY    58  42  55 CALM      30.10F HAZE
MULLAN PASS    CLOUDY    59  36  42 SE12G21   29.98F HAZE
DEER LODGE       N/A     61  45  55 CALM      30.05F
EUREKA           N/A     55  43  62 E3        29.86
HAMILTON         N/A     63  43  48 SE6       29.91F
LIBBY            N/A     55  43  62 CALM      29.84S
PLAINS           N/A     52  42  68 CALM      29.87F
$$

MTZ008-052>055-291200-
SOUTHWEST MONTANA

CITY           SKY/WX    TMP DP  RH WIND       PRES   REMARKS
BOZEMAN        MOCLDY    57  46  66 CALM      30.05F HAZE
DILLON         CLOUDY    62  40  44 SW8       30.08S HAZE
W YELLOWSTONE  PTCLDY    43  32  65 CALM      30.23S
$$

MTZ009-010-012-014-046-048-049-054-291200-
EAST SLOPES AND CENTRAL MONTANA

CITY           SKY/WX    TMP DP  RH WIND       PRES   REMARKS
CUT BANK       CLOUDY    62  38  40 SW3       29.93S HAZE
GREAT FALLS    MOCLDY    72  40  31 S8        29.94F HAZE
MALMSTROM AFB  MOCLDY    69  41  36 S8        29.94F
HELENA         CLOUDY    66  44  45 S5        29.97F SMOKE
CONRAD           N/A     61  46  57 CALM      29.95F
$$

MTZ011-013-016-021-045-047-050-051-291200-
NORTH CENTRAL MONTANA

CITY           SKY/WX    TMP DP  RH WIND       PRES   REMARKS
HAVRE          CLOUDY    66  43  43 VRB7      29.88S HAZE
LEWISTOWN      CLOUDY    63  45  51 SE5       30.02S HAZE
N BAR RANCH      N/A     66  41  39 W6        30.06S
CHINOOK          N/A     70  45  40 W5        29.88R
FORT BENTON      N/A     68  43  40 CALM      29.91F
$$

MTZ017>020-022>027-061-062-291200-
NORTHEAST MONTANA

CITY           SKY/WX    TMP DP  RH WIND       PRES   REMARKS
GLASGOW        MOCLDY    65  45  48 SE7       29.88R HAZE
JORDAN           N/A     67  41  38 NW8       29.91S
SIDNEY         CLEAR     54  46  76 S6        29.91S
WOLF POINT     MOCLDY    56  47  71 E3        29.88F HAZE
MALTA            N/A     63  47  55 CALM      29.84F
PLENTYWOOD       N/A     63  45  51 E6        29.89F
POPLAR           N/A     55  45  67 CALM      29.89S
$$

MTZ028>42-056>058-291200-
SOUTHCENTRAL AND SOUTHEAST MONTANA

CITY           SKY/WX    TMP DP  RH WIND       PRES   REMARKS
BAKER          CLEAR     55  45  68 E5        29.99F HAZE
BILLINGS       PTCLDY    67  39  35 S5        29.99R
LIVINGSTON     PTCLDY    57  39  51 NW3       30.06S HAZE
MILES CITY     CLEAR     64  44  48 S8        29.93F HAZE
EKALAKA          N/A     66  41  40 SE7       30.00F
FORSYTH          N/A     64  43  45 NW9       29.92S
LAUREL           N/A     62  40  44 CALM      29.98R
$$

REGIONAL REPORTS...DAKOTAS

CITY           SKY/WX    TMP DP  RH WIND       PRES   REMARKS
WILLISTON      CLOUDY    58  52  80 SW3       29.91F HAZE
MINOT          CLOUDY    61  52  72 SW5       29.88F HAZE
DICKINSON      CLOUDY    56  45  66 S7        29.95F HAZE
CROSBY           N/A     61  52  72 SW12      29.89F HAZE
BISMARCK       CLOUDY    60  59  96 CALM      29.93R
GRAND FORKS    CLEAR     62  61  96 SE5       29.89S
FARGO          CLEAR     64  60  87 S9        29.93S
BUFFALO SD       N/A     57  46  66 NE3       29.96S
RAPID CITY     CLEAR     58  52  80 CALM      30.05S
$$

REGIONAL REPORTS...WYOMING/IDAHO/WASHINGTON

CITY           SKY/WX    TMP DP  RH WIND       PRES   REMARKS
GILLETTE       PTCLDY    65  40  39 VRB5      30.09S
SHERIDAN       CLEAR     52  43  71 CALM      30.03F
BUFFALO WY     CLEAR     69  32  25 SW13      30.12S
CODY           PTCLDY    63  39  42 CALM      30.10S
YELLOWSTONE LA   N/A     40  37  89 CALM      30.35S
IDAHO FALLS    MOCLDY    59  50  72 N6        30.06S
SALMON         MOCLDY    61  45  55 S5        29.97F
BOISE          CLOUDY    79  40  24 SE14      29.80F
SPOKANE        CLOUDY    66  45  46 NE6       29.69F
$$

REGIONAL REPORTS...ALBERTA

CITY           SKY/WX    TMP DP  RH WIND       PRES   REMARKS
EDMONTON       CLEAR     57  45  62 W6        29.75R
CALGARY        MOCLDY    63  43  48 SW8       29.83S
LETHBRIDGE     CLEAR     54  43  66 W7        29.87S
MEDICINE HAT   CLEAR     57  45  62 SW7       29.82S
WATERTON GATE    N/A     43  39  87 NE2         N/A
MILK RIVER       N/A     61  39  44 SW2         N/A
$$

REGIONAL REPORTS...SASKATCHEWAN

CITY           SKY/WX    TMP DP  RH WIND       PRES   REMARKS
SWIFT CURRENT  CLEAR     63  46  55 SW10      29.84S HAZE
REGINA         CLOUDY    61  54  77 SE9       29.82F
CYPRESS HILLS    N/A     64  36  34 W6          N/A
VAL MARIE        N/A     64  46  52 W6          N/A
ROCKGLEN         N/A     64  45  48 SW10        N/A
ASSINIBOIA       N/A     57  50  77 NW7         N/A
$$



USA.gov is the U.S. government's official web portal to all federal, state and local government web resources and services.